This demonstration page uses our WeatherBlox Daily Observations layout. Learn more.

36.17497, -115.13722

Hourly Observations for July 15, 2018

Temp ( °F °C ) Dew Point ( °F °C ) Humidity (%) Winds ( mph kmh ) Pressure ( in mb ) Visibility ( mi km ) Precip ( " mm )
12:53 am 00:53 Mostly Clear 83 28.3 67 19.4 59 59 WSW 6 9 29.94 1014 10 16.09344 0.001 0.001
1:53 am 01:53 Clear 83 28.3 68 20 61 61 ENE 7 11 29.91 1013 10 16.09344 0 0
2:53 am 02:53 Mostly Clear 83 28.3 67 19.4 59 59 Calm 29.94 1014 10 16.09344 0 0
3:53 am 03:53 Clear 80 26.7 69 20.6 69 69 S 9 15 29.91 1013 10 16.09344 0 0
4:53 am 04:53 Clear 79 26.1 68 20 69 69 S 6 9 29.91 1013 10 16.09344 0 0
5:53 am 05:53 Mostly Sunny 80 26.7 67 19.4 64 64 Calm 29.94 1014 10 16.09344 0 0
6:53 am 06:53 Sunny 81 27.2 69 20.6 67 67 Calm 29.94 1014 10 16.09344 0 0
7:53 am 07:53 Sunny 83 28.3 67 19.4 59 59 Calm 29.97 1015 10 16.09344 0 0
8:53 am 08:53 Sunny 86 30 67 19.4 53 53 S 3 6 29.97 1015 10 16.09344 0 0
9:53 am 09:53 Sunny 88 31.1 66 18.9 48 48 E 6 9 29.97 1015 10 16.09344 0 0
10:53 am 10:53 Sunny 90 32.2 64 17.8 42 42 SSE 7 11 29.97 1015 10 16.09344 0 0
11:53 am 11:53 Sunny 93 33.9 62 16.7 36 36 SE 7 11 29.94 1014 10 16.09344 0 0
12:53 pm 12:53 Sunny 95 35 61 16.1 32 32 Calm 29.91 1013 10 16.09344 0 0
1:53 pm 13:53 Sunny 98 36.7 61 16.1 29 29 ESE 8 13 29.88 1012 10 16.09344 0 0
2:53 pm 14:53 Sunny 99 37.2 60 15.6 28 28 SSE 7 11 29.85 1011 10 16.09344 0 0
3:53 pm 15:53 Sunny 102 38.9 61 16.1 26 26 S 10 17 29.83 1010 10 16.09344 0 0
4:53 pm 16:53 Sunny 102 38.9 60 15.6 25 25 ESE 7 11 29.8 1009 10 16.09344 0 0
5:53 pm 17:53 Sunny 102 38.9 58 14.4 23 23 undefined N/A 29.77 1008 10 16.09344 0 0
6:53 pm 18:53 Sunny 102 38.9 57 13.9 23 23 SSE 10 17 29.8 1009 10 16.09344 0 0
7:53 pm 19:53 Sunny 100 37.8 55 12.8 22 22 SE 9 15 29.8 1009 10 16.09344 0 0
8:53 pm 20:53 Clear 98 36.7 56 13.3 24 24 SE 7 11 29.8 1009 10 16.09344 0 0
9:53 pm 21:53 Clear 96 35.6 61 16.1 31 31 SE 7 11 29.83 1010 10 16.09344 0 0
10:53 pm 22:53 Clear 94 34.4 62 16.7 35 35 E 6 9 29.83 1010 10 16.09344 0 0
11:53 pm 23:53 Clear 92 33.3 63 17.2 38 38 SE 6 9 29.83 1010 10 16.09344 0 0

Powered by AerisWeather